Zurück zum Katalog

CZ-2C DEB

AktivSSO
NORAD 40290·DEBRIS·🇨🇳 China

Gestartet Oct 27, 2014 von Jiuquan Satellite Launch Center

Loading…

Nächste Überflüge (nächste 24 Stunden)

TLE

AktuellSource: Space-Track

Epoche: Sep 14, 2026, 09:22 UTC

1 40290U 14066E   26257.39086180  .00012030  00000-0  88885-3 0  9995
2 40290  97.9603 237.0315 0035772 249.2563 110.4826 15.02868011633373

Verfolge CZ-2C DEB in Echtzeit mit AllMySat

Download on the App Store